Weather History for Lordsburg, NM

Change the Weather History Date:

Friday, January 4, 2013

  Actual Average Record
Temperature  
Mean Temperature 32 °F -  
Max Temperature 41 °F 55 °F 60 °F (2014)
Min Temperature 23 °F 23 °F 23 °F (2013)
Degree Days  
Heating Degree Days 33    
Moisture  
Dew Point 27 °F    
Average Humidity 82    
Maximum Humidity 93    
Minimum Humidity 61    
Precipitation  
Precipitation 0.00 in - - ()
Sea Level Pressure  
Sea Level Pressure 30.28 in    
Wind  
Wind Speed 10 mph (SE)    
Max Wind Speed 14 mph    
Max Gust Speed 18 mph    
Visibility 9 miles    
Events Snow    
Averages and records for this station are not official NWS values.
T = Trace of Precipitation, MM = Missing Value Source: NWS Daily Summary

Daily Weather History Graph

Daily Weather History Graph

Search for Another Location

Airport:

Trip Planner

Search our weather history database for the weather conditions in past years. The results will help you decide how hot, cold, wet, or windy it might be!

Date:

Astronomy

Jan. 04, 2013 Rise Set
Actual Time 7:16 AM MST 5:23 PM MST
Civil Twilight 6:49 AM MST 5:50 PM MST
Nautical Twilight 6:19 AM MST 6:20 PM MST
Astronomical Twilight 5:49 AM MST 6:50 PM MST
Moon No Moon Rise 11:27 AM MST (1/4)
Length of Visible Light 11h 00m
Length of Day
10h 06m
Waning Gibbous, 54% of the Moon is Illuminated
Jan 4
Waning Gibbous
Jan 4
Last Quarter
Jan 11
New
Jan 18
First Quarter
Jan 26
Full

Hourly Weather History & Observations

Time (MST) Temp. Windchill Dew Point Humidity Pressure Visibility Wind Dir Wind Speed Gust Speed Precip Events Conditions
12:15 AM 32.0 °F 22.1 °F 30.2 °F 93% 30.27 in 10.0 mi SE 13.8 mph - N/A   Overcast
12:35 AM 32.0 °F 22.5 °F 28.4 °F 87% 30.27 in 10.0 mi SE 12.7 mph 18.4 mph N/A   Overcast
12:55 AM 32.0 °F 22.5 °F 28.4 °F 87% 30.27 in 10.0 mi SE 12.7 mph 17.3 mph N/A Snow Light Snow
1:15 AM 30.2 °F 20.8 °F 28.4 °F 93% 30.27 in 10.0 mi SE 11.5 mph 16.1 mph N/A   Overcast
1:35 AM 30.2 °F 19.8 °F 28.4 °F 93% 30.27 in 10.0 mi SE 13.8 mph - N/A   Overcast
1:55 AM 30.2 °F 22.6 °F 28.4 °F 93% 30.27 in 10.0 mi SE 8.1 mph - N/A   Overcast
2:15 AM 30.2 °F 20.8 °F 28.4 °F 93% 30.27 in 10.0 mi SE 11.5 mph - N/A   Overcast
4:55 AM 30.2 °F 24.3 °F 28.4 °F 93% 30.27 in 10.0 mi SE 5.8 mph - N/A   Overcast
5:15 AM 30.2 °F 23.4 °F 28.4 °F 93% 30.27 in 10.0 mi SE 6.9 mph - N/A   Overcast
5:35 AM 30.2 °F 21.9 °F 28.4 °F 93% 30.27 in 10.0 mi SE 9.2 mph - N/A   Overcast
5:55 AM 30.2 °F 21.9 °F 28.4 °F 93% 30.27 in 10.0 mi SE 9.2 mph - N/A   Overcast
6:15 AM 30.2 °F 22.6 °F 28.4 °F 93% 30.28 in 10.0 mi SE 8.1 mph - N/A   Overcast
6:35 AM 30.2 °F 23.4 °F 28.4 °F 93% 30.28 in 10.0 mi SE 6.9 mph - N/A   Overcast
6:55 AM 30.2 °F 24.3 °F 28.4 °F 93% 30.29 in 10.0 mi ESE 5.8 mph - N/A   Overcast
7:15 AM 30.2 °F 21.9 °F 28.4 °F 93% 30.29 in 7.0 mi ESE 9.2 mph - N/A Snow Light Snow
7:35 AM 30.2 °F 23.4 °F 28.4 °F 93% 30.30 in 1.8 mi SE 6.9 mph - N/A Snow Light Snow
7:55 AM 30.2 °F 22.6 °F 28.4 °F 93% 30.30 in 2.0 mi SE 8.1 mph - N/A Snow Light Snow
8:15 AM 30.2 °F 24.3 °F 28.4 °F 93% 30.31 in 4.0 mi SE 5.8 mph - N/A Snow Light Snow
8:35 AM 30.2 °F 23.4 °F 28.4 °F 93% 30.32 in 2.0 mi SE 6.9 mph - N/A Snow Light Snow
8:55 AM 32.0 °F 24.8 °F 28.4 °F 87% 30.32 in 1.8 mi ESE 8.1 mph - N/A Snow Light Snow
9:15 AM 32.0 °F 24.8 °F 28.4 °F 87% 30.33 in 2.0 mi ESE 8.1 mph - N/A Snow Light Snow
9:35 AM 32.0 °F 24.2 °F 28.4 °F 87% 30.34 in 2.5 mi SE 9.2 mph - N/A Snow Light Snow
9:55 AM 32.0 °F 23.6 °F 30.2 °F 93% 30.34 in 5.0 mi SE 10.4 mph - N/A Snow Light Snow
10:15 AM 33.8 °F 26.4 °F 30.2 °F 87% 30.34 in 7.0 mi SE 9.2 mph - N/A Snow Light Snow
10:35 AM 33.8 °F 26.4 °F 32.0 °F 93% 30.33 in 10.0 mi SE 9.2 mph - N/A   Overcast
10:55 AM 33.8 °F 25.3 °F 30.2 °F 87% 30.33 in 10.0 mi SE 11.5 mph - N/A   Overcast
11:15 AM 35.6 °F 27.5 °F 30.2 °F 81% 30.32 in 10.0 mi SE 11.5 mph - N/A Snow Light Snow
11:35 AM 35.6 °F 28.0 °F 30.2 °F 81% 30.32 in 10.0 mi ESE 10.4 mph - N/A   Overcast
11:55 AM 35.6 °F 28.0 °F 28.4 °F 75% 30.30 in 10.0 mi SE 10.4 mph - N/A   Mostly Cloudy
12:15 PM 37.4 °F 30.3 °F 28.4 °F 70% 30.29 in 10.0 mi SE 10.4 mph - N/A   Scattered Clouds
12:35 PM 37.4 °F 29.8 °F 28.4 °F 70% 30.28 in 10.0 mi SE 11.5 mph - N/A   Scattered Clouds
12:55 PM 37.4 °F 29.3 °F 28.4 °F 70% 30.27 in 10.0 mi ESE 12.7 mph - N/A   Scattered Clouds
1:15 PM 37.4 °F 29.8 °F 28.4 °F 70% 30.25 in 10.0 mi SE 11.5 mph 17.3 mph N/A   Clear
1:35 PM 39.2 °F 32.0 °F 28.4 °F 65% 30.24 in 10.0 mi SE 11.5 mph 16.1 mph N/A   Clear
1:55 PM 37.4 °F 30.8 °F 28.4 °F 70% 30.24 in 10.0 mi SE 9.2 mph - N/A   Scattered Clouds
2:15 PM 39.2 °F 31.6 °F 28.4 °F 65% 30.23 in 10.0 mi ESE 12.7 mph - N/A   Scattered Clouds
2:35 PM 39.2 °F 32.0 °F 28.4 °F 65% 30.23 in 10.0 mi SE 11.5 mph - N/A   Scattered Clouds
2:55 PM 41.0 °F 34.7 °F 28.4 °F 61% 30.23 in 10.0 mi ESE 10.4 mph - N/A   Clear
3:15 PM 41.0 °F 34.7 °F 28.4 °F 61% 30.23 in 10.0 mi ESE 10.4 mph - N/A   Scattered Clouds
3:35 PM 39.2 °F 33.6 °F 26.6 °F 61% 30.23 in 10.0 mi SSE 8.1 mph - N/A   Scattered Clouds
3:55 PM 39.2 °F 32.5 °F 26.6 °F 61% 30.24 in 10.0 mi SSE 10.4 mph - N/A   Clear
4:15 PM 39.2 °F 33.0 °F 26.6 °F 61% 30.23 in 10.0 mi SSE 9.2 mph - N/A   Clear
4:35 PM 37.4 °F 31.4 °F 26.6 °F 65% 30.23 in 10.0 mi SE 8.1 mph - N/A   Clear
4:55 PM 37.4 °F 32.1 °F 26.6 °F 65% 30.24 in 10.0 mi SSE 6.9 mph - N/A   Clear
5:15 PM 35.6 °F 29.9 °F 26.6 °F 70% 30.24 in 10.0 mi SSE 6.9 mph - N/A   Clear
5:35 PM 33.8 °F 28.6 °F 26.6 °F 75% 30.25 in 10.0 mi SE 5.8 mph - N/A   Clear
5:55 PM 32.0 °F 26.4 °F 24.8 °F 75% 30.25 in 10.0 mi SE 5.8 mph - N/A   Clear
6:15 PM 32.0 °F 27.5 °F 23.0 °F 69% 30.26 in 10.0 mi SE 4.6 mph - N/A   Clear
6:35 PM 30.2 °F 24.3 °F 23.0 °F 75% 30.27 in 10.0 mi SSE 5.8 mph - N/A   Clear
6:55 PM 30.2 °F 24.3 °F 23.0 °F 75% 30.27 in 10.0 mi SSE 5.8 mph - N/A   Clear
7:15 PM 28.4 °F 21.2 °F 23.0 °F 80% 30.28 in 10.0 mi SE 6.9 mph - N/A   Clear
7:35 PM 28.4 °F 22.2 °F 23.0 °F 80% 30.28 in 10.0 mi ESE 5.8 mph - N/A   Clear
7:55 PM 28.4 °F 22.2 °F 23.0 °F 80% 30.28 in 10.0 mi SE 5.8 mph - N/A   Clear
8:15 PM 26.6 °F 20.0 °F 23.0 °F 86% 30.28 in 10.0 mi SE 5.8 mph - N/A   Clear
8:35 PM 26.6 °F 20.0 °F 21.2 °F 80% 30.28 in 10.0 mi SE 5.8 mph - N/A   Clear
8:55 PM 26.6 °F 21.2 °F 23.0 °F 86% 30.29 in 10.0 mi SSE 4.6 mph - N/A   Clear
9:15 PM 24.8 °F 19.1 °F 21.2 °F 86% 30.29 in 10.0 mi SSE 4.6 mph - N/A   Clear
9:35 PM 24.8 °F 17.9 °F 23.0 °F 93% 30.30 in 10.0 mi SSE 5.8 mph - N/A   Clear
9:55 PM 24.8 °F 17.9 °F 23.0 °F 93% 30.30 in 10.0 mi SSE 5.8 mph - N/A   Clear
10:15 PM 24.8 °F 16.9 °F 23.0 °F 93% 30.30 in 10.0 mi SE 6.9 mph - N/A   Clear
10:35 PM 24.8 °F 17.9 °F 23.0 °F 93% 30.31 in 10.0 mi SE 5.8 mph - N/A   Clear
10:55 PM 23.0 °F 17.0 °F 21.2 °F 93% 30.31 in 10.0 mi SE 4.6 mph - N/A   Clear
11:15 PM 23.0 °F 15.8 °F 21.2 °F 93% 30.31 in 10.0 mi SE 5.8 mph - N/A   Clear
11:35 PM 23.0 °F 15.8 °F 21.2 °F 93% 30.30 in 10.0 mi SSE 5.8 mph - N/A   Clear
11:55 PM 23.0 °F 17.0 °F 21.2 °F 93% 30.29 in 10.0 mi South 4.6 mph - N/A   Clear